Location: Torch Lake Township
(45.0753°N, 85.3586°W)
Time: 20:11:19
(UTC-05:00)

Amateur Radio Satellites - All Passes

Search period start: 23 January 2017 19:41
Search period end: 24 January 2017 19:41
Location: Torch Lake Township, 45.0753°N, 85.3586°W

Satellite Date Start Highest point End Downlink Frequencies (MHz)
Time Altitude Azimuth
NOAA 18 23 Jan 19:49:25 19:53:41 23° 267° (W) 19:57:58 137.9125
AIST 2 23 Jan 19:55:19 19:59:25 64° 307° (NW) 20:03:36 435.215
Oscar 11 23 Jan 19:59:34 20:03:10 26° 67° (ENE) 20:06:48 145.826/435.025
CINEMA 3 23 Jan 20:06:00 20:09:27 23° 266° (W) 20:12:50 145.822/145.860
DELFI C3 23 Jan 20:12:44 20:14:24 12° 61° (ENE) 20:16:05 145.870
STRAND 1 23 Jan 20:19:21 20:24:32 90° 89° (E) 20:29:42 437.568
CUTE 1.7 + AOD 2 23 Jan 20:22:34 20:26:10 26° 266° (W) 20:29:48 437.475
CUBEBUG 2 23 Jan 20:35:04 20:39:01 43° 262° (W) 20:43:00 437.445
FUNcube-1 23 Jan 20:40:14 20:44:21 74° 74° (ENE) 20:48:32 145.935
ISS 23 Jan 20:44:10 20:45:55 14° 133° (SE) 20:47:41 145.825
HUMSAT D 23 Jan 20:45:17 20:47:50 16° 63° (ENE) 20:50:25 437.325/437.525
COMPASS 1 23 Jan 20:54:01 20:57:34 26° 266° (W) 21:01:08 437.405
CANX-2 23 Jan 20:55:15 20:56:37 11° 272° (W) 20:57:59 2200.000
UWE-3 23 Jan 20:55:39 20:59:33 41° 262° (W) 21:03:30 435.000/436.395/437.385
AO-85 23 Jan 20:55:50 20:58:45 19° 39° (NE) 21:01:38 145.980
SEEDS 23 Jan 20:56:42 20:59:33 18° 269° (W) 21:02:26 437.485
AAUSAT CUBESAT 2 23 Jan 21:01:21 21:04:57 28° 265° (W) 21:08:36 437.432
ZACube-1 23 Jan 21:05:41 21:09:43 53° 260° (W) 21:13:50 437.345
HO-68 23 Jan 21:06:05 21:11:17 21° 270° (W) 21:16:32 435.675
GONETS M04 23 Jan 21:21:36 21:29:52 46° 288° (WNW) 21:38:17
Cosmos 2499 23 Jan 21:34:44 21:41:39 29° 292° (WNW) 21:48:12 435.465 / 435.565
Oscar 11 23 Jan 21:35:21 21:39:11 31° 264° (W) 21:43:05 145.826/435.025
AIST 2 23 Jan 21:36:50 21:38:44 13° 329° (NNW) 21:40:39 435.215
DELFI C3 23 Jan 21:44:41 21:48:40 67° 258° (WSW) 21:52:42 145.870
STRAND 1 23 Jan 22:00:22 22:02:59 14° 303° (WNW) 22:05:36 437.568
BY70-1 23 Jan 22:10:39 22:13:19 25° 69° (ENE) 22:16:06 436.1900
UNISAT 6 23 Jan 22:14:01 22:17:56 29° 96° (E) 22:21:52 437.425
PRISM 23 Jan 22:17:14 22:21:21 90° 314° (NW) 22:25:27 437.425
ISS 23 Jan 22:18:43 22:21:58 88° 330° (NNW) 22:25:14 145.825
HUMSAT D 23 Jan 22:19:01 22:23:02 52° 261° (W) 22:27:08 437.325/437.525
FUNcube-1 23 Jan 22:20:40 22:21:08 10° 273° (W) 22:21:36 145.935
JAS-2 23 Jan 22:25:43 22:31:23 23° 90° (E) 22:37:16 435.910
TIGRISAT 23 Jan 22:26:01 22:30:08 35° 97° (E) 22:34:19 435.000
RS-15 23 Jan 22:27:11 22:37:17 35° 104° (ESE) 22:47:42 29.354- 29.394
VELOX 1 23 Jan 22:33:50 22:36:03 14° 60° (ENE) 22:38:16 145.980
AO-85 23 Jan 22:35:37 22:39:28 54° 239° (WSW) 22:43:16 145.980
ESTCUBE 1 23 Jan 22:36:46 22:40:53 35° 69° (ENE) 22:45:03 437.505/2401.250
ANTELSAT 23 Jan 22:42:04 22:46:28 54° 100° (E) 22:50:57 437.575/2403.000
DX 1 23 Jan 22:54:28 22:55:37 11° 58° (ENE) 22:56:46 434.975-435.025
CUBEBUG 1 23 Jan 23:08:03 23:12:12 43° 71° (ENE) 23:16:22 437.445
BEESAT 3 23 Jan 23:11:11 23:14:00 18° 39° (NE) 23:16:49 437.485
POPSAT HIP 1 23 Jan 23:23:14 23:25:37 15° 91° (E) 23:28:00 437.405
DUCHIFAT 1 23 Jan 23:29:10 23:31:31 15° 91° (E) 23:33:53 145.980
AISAT 23 Jan 23:34:27 23:38:47 54° 72° (ENE) 23:43:07 437.250
NANOSAT C BR1 23 Jan 23:36:13 23:39:16 19° 93° (E) 23:42:18 145.865
BY70-1 23 Jan 23:41:19 23:43:33 18° 267° (W) 23:45:52 436.1900
AIST 1 23 Jan 23:41:26 23:42:06 10° 64° (ENE) 23:42:46
UNISAT 6 23 Jan 23:50:41 23:54:37 31° 292° (WNW) 23:58:36 437.425
ISS 23 Jan 23:55:52 23:58:46 28° 349° (N) 00:01:39 145.825
50 SAT 24 Jan 00:01:27 00:05:02 75° 74° (ENE) 00:08:37 437.505
TIGRISAT 24 Jan 00:03:00 00:06:40 26° 294° (WNW) 00:10:24 435.000
BEESAT 2 24 Jan 00:04:04 00:07:26 24° 43° (NE) 00:10:47 435.950
SPROUT 24 Jan 00:07:23 00:11:38 83° 75° (ENE) 00:15:55 437.525
VELOX 1 24 Jan 00:07:30 00:11:56 73° 258° (WSW) 00:16:24 145.980
JAS-2 24 Jan 00:09:39 00:16:57 80° 287° (WNW) 00:24:46 435.910
ESTCUBE 1 24 Jan 00:13:59 00:17:45 25° 266° (W) 00:21:33 437.505/2401.250
PCSat 24 Jan 00:17:34 00:22:45 50° 115° (ESE) 00:27:59 145.827
UKube-1 24 Jan 00:18:12 00:22:25 53° 71° (ENE) 00:26:39 .
ANTELSAT 24 Jan 00:19:48 00:22:48 18° 297° (WNW) 00:25:49 437.575/2403.000
DX 1 24 Jan 00:26:43 00:31:05 89° 92° (E) 00:35:30 434.975-435.025
QB50P1 24 Jan 00:30:09 00:34:23 78° 102° (ESE) 00:38:37 145.935-145.965
POLYITAN 1 24 Jan 00:35:34 00:39:51 89° 128° (SE) 00:44:05 437.675
RS-15 24 Jan 00:36:42 00:48:41 78° 308° (NW) 01:01:10 29.354- 29.394
QB50P2 24 Jan 00:36:59 00:41:15 82° 282° (WNW) 00:45:29 145.880/145.840
YUBILEINY 24 Jan 00:44:21 00:52:44 45° 71° (ENE) 01:01:00 435.215
CUBEBUG 1 24 Jan 00:45:27 00:48:40 20° 267° (W) 00:51:54 437.445
SWISSCUBE 24 Jan 00:46:38 00:47:30 10° 55° (NE) 00:48:23 437.505
BEESAT 3 24 Jan 00:48:02 00:52:01 66° 238° (WSW) 00:55:58 437.485
Oscar 19 24 Jan 00:56:17 00:59:03 14° 89° (E) 01:01:47 437.125/150
POPSAT HIP 1 24 Jan 00:57:35 01:01:43 54° 287° (WNW) 01:05:51 437.405
DUCHIFAT 1 24 Jan 01:03:25 01:07:32 54° 287° (WNW) 01:11:38 145.980
NANOSAT C BR1 24 Jan 01:11:12 01:15:10 41° 289° (WNW) 01:19:08 145.865
AISAT 24 Jan 01:12:49 01:15:34 16° 269° (W) 01:18:20 437.250
AIST 1 24 Jan 01:16:02 01:20:20 81° 262° (W) 01:24:34
TISAT 1 24 Jan 01:21:30 01:25:40 79° 73° (ENE) 01:29:51 437.305
BUGSAT 1 24 Jan 01:21:57 01:26:00 88° 95° (E) 01:30:05 437.445
Cosmos 2504 24 Jan 01:27:49 01:34:43 41° 72° (ENE) 01:41:22 435.465 / 435.565
ISS 24 Jan 01:33:01 01:35:52 27° 10° (N) 01:38:43 145.825
Cosmos 2491 24 Jan 01:37:27 01:45:27 43° 87° (E) 01:53:29 435.465 / 435.565
Gurwin Techsat 1B 24 Jan 01:40:47 01:44:44 21° 92° (E) 01:48:41 435.225
BEESAT 2 24 Jan 01:41:32 01:45:23 42° 241° (WSW) 01:49:11 435.950
ITUPSAT 1 24 Jan 01:46:20 01:50:32 32° 66° (ENE) 01:54:46 437.325
UKube-1 24 Jan 01:56:09 01:58:46 16° 269° (W) 02:01:23 .
JAS-2 24 Jan 01:56:13 02:01:02 20° 305° (NW) 02:06:05 435.910
PCSat 24 Jan 02:01:37 02:06:22 31° 315° (NW) 02:11:11 145.827
PHONESAT 2.4 24 Jan 02:01:45 02:03:31 21° 172° (S) 02:05:18 2401.200-2431.200
QB50P1 24 Jan 02:08:00 02:09:33 12° 300° (WNW) 02:11:07 145.935-145.965
POLYITAN 1 24 Jan 02:14:07 02:14:57 10° 301° (WNW) 02:15:47 437.675
BEESAT 24 Jan 02:17:41 02:22:22 64° 73° (ENE) 02:27:06 436.000
SWISSCUBE 24 Jan 02:19:41 02:24:26 74° 74° (ENE) 02:29:13 437.505
Oscar 19 24 Jan 02:33:47 02:38:58 77° 286° (WNW) 02:44:05 437.125/150
AIST 2 24 Jan 02:36:48 02:40:12 23° 41° (NE) 02:43:37 435.215
YUBILEINY 24 Jan 02:41:20 02:49:32 45° 273° (W) 02:57:40 435.215
M-CUBED/EXP-1 PRIME 24 Jan 02:43:31 02:46:38 21° 61° (ENE) 02:49:36 437.505
RS-15 24 Jan 02:52:37 03:03:33 36° 338° (NNW) 03:14:41 29.354- 29.394
DANDE 24 Jan 02:52:47 02:53:37 10° 74° (ENE) 02:54:31 436.750
CUSAT 1 24 Jan 02:59:21 03:04:49 53° 92° (E) 03:11:43 437.405
ISS 24 Jan 03:09:26 03:12:42 81° 30° (NNE) 03:15:56 145.825
MOZHAYETS 4 24 Jan 03:15:13 03:19:46 72° 73° (ENE) 03:24:23
AUBIESAT-1 24 Jan 03:15:59 03:19:44 35° 65° (ENE) 03:23:15 437.475
Gurwin Techsat 1B 24 Jan 03:19:50 03:25:02 56° 289° (WNW) 03:30:13 435.225
Cosmos 2504 24 Jan 03:21:22 03:28:02 39° 273° (W) 03:34:31 435.465 / 435.565
ITUPSAT 1 24 Jan 03:24:07 03:28:20 31° 264° (W) 03:32:35 437.325
ITAMSAT 1 24 Jan 03:25:29 03:30:18 37° 97° (E) 03:35:07 435.822/435.867
KKS-1 24 Jan 03:26:23 03:30:19 32° 68° (ENE) 03:34:16 437.445
Cosmos 2491 24 Jan 03:33:58 03:42:13 46° 288° (WNW) 03:50:34 435.465 / 435.565
PHONESAT 2.4 24 Jan 03:35:08 03:36:56 21° 188° (S) 03:38:44 2401.200-2431.200
AO-7 24 Jan 03:43:50 03:51:36 40° 98° (E) 03:59:16 29.400- 29.500
BEESAT 24 Jan 03:57:48 04:00:36 15° 270° (W) 04:03:24 436.000
SWISSCUBE 24 Jan 04:00:31 04:02:46 13° 271° (W) 04:05:01 437.505
STARS 24 Jan 04:08:04 04:12:08 39° 70° (ENE) 04:16:14 437.465
CUBESAT XI-V 24 Jan 04:11:54 04:16:22 45° 71° (ENE) 04:20:52 437.345
AIST 2 24 Jan 04:14:49 04:18:58 52° 240° (WSW) 04:23:05 435.215
Oscar 19 24 Jan 04:15:30 04:17:24 12° 305° (NW) 04:19:17 437.125/150
M-CUBED/EXP-1 PRIME 24 Jan 04:16:54 04:20:55 40° 255° (WSW) 04:24:41 437.505
DANDE 24 Jan 04:30:29 04:34:47 88° 281° (W) 04:40:42 436.750
CUSAT 1 24 Jan 04:42:05 04:47:14 30° 297° (WNW) 04:53:25 437.405
ISS 24 Jan 04:46:48 04:48:47 15° 226° (SW) 04:50:47 145.825
AUBIESAT-1 24 Jan 04:50:57 04:54:11 22° 259° (W) 04:57:16 437.475
MOZHAYETS 4 24 Jan 04:55:26 04:57:27 13° 272° (W) 04:59:30
KKS-1 24 Jan 05:03:08 05:06:54 27° 265° (W) 05:10:41 437.445
ITAMSAT 1 24 Jan 05:05:07 05:09:40 32° 295° (WNW) 05:14:15 435.822/435.867
GOMX 1 24 Jan 05:06:05 05:07:11 11° 87° (E) 05:08:16 467.674
RS-15 24 Jan 05:10:08 05:20:48 32° 12° (NNE) 05:31:21 29.354- 29.394
BRITE-PL 24 Jan 05:20:44 05:25:20 44° 97° (E) 05:29:33 437.365/2234.400
Cosmos 2499 24 Jan 05:29:32 05:34:56 22° 64° (ENE) 05:40:16 435.465 / 435.565
GONETS M04 24 Jan 05:32:38 05:39:32 24° 61° (ENE) 05:46:23
AO-7 24 Jan 05:36:32 05:44:33 52° 298° (WNW) 05:52:30 29.400- 29.500
NOAA 15 24 Jan 05:45:10 05:48:01 14° 89° (E) 05:50:51 137.62
STARS 24 Jan 05:45:18 05:48:38 21° 266° (W) 05:51:58 437.465
CUBESAT XI-V 24 Jan 05:50:22 05:53:57 21° 268° (W) 05:57:34 437.345
Cubesat XI-IV 24 Jan 05:50:44 05:53:55 16° 89° (E) 05:57:05 437.490
STRAND 1 24 Jan 05:59:40 06:03:33 23° 62° (ENE) 06:07:28 437.568
HORYU 2 24 Jan 06:00:32 06:04:51 46° 100° (E) 06:09:09 437.375
O/OREOS (USA 219) 24 Jan 06:07:21 06:11:45 61° 110° (ESE) 06:16:11 437.305
LilacSat-2 24 Jan 06:12:12 06:15:21 23° 94° (E) 06:18:30 437.200
DANDE 24 Jan 06:16:37 06:18:58 13° 308° (NW) 06:21:35 436.750
NOAA 18 24 Jan 06:28:16 06:32:02 19° 91° (E) 06:35:46 137.9125
GOMX 1 24 Jan 06:41:32 06:45:54 71° 286° (WNW) 06:50:04 467.674
HO-68 24 Jan 06:44:12 06:46:53 12° 85° (E) 06:49:34 435.675
CUTE-I 24 Jan 06:44:40 06:49:50 47° 99° (E) 06:54:59 437.470
DOVE 4 24 Jan 06:59:10 07:03:20 68° 102° (ESE) 07:07:27 437.250
BRITE-PL 24 Jan 06:59:50 07:03:29 22° 297° (WNW) 07:06:56 437.365/2234.400
CANX-2 24 Jan 07:01:23 07:02:36 11° 88° (E) 07:03:50 2200.000
SO-50 24 Jan 07:08:05 07:12:25 37° 118° (ESE) 07:16:43 436.795
PCSat 24 Jan 07:21:00 07:24:08 15° 33° (NNE) 07:27:15 145.827
Cosmos 2499 24 Jan 07:21:45 07:28:49 71° 266° (W) 07:35:51 435.465 / 435.565
NOAA 15 24 Jan 07:23:04 07:28:24 79° 288° (WNW) 07:33:42 137.62
RS-15 24 Jan 07:24:22 07:36:38 60° 44° (NE) 07:48:29 29.354- 29.394
GONETS M04 24 Jan 07:28:36 07:37:29 83° 264° (W) 07:46:21
Cubesat XI-IV 24 Jan 07:29:12 07:34:33 74° 287° (WNW) 07:39:53 437.490
AO-7 24 Jan 07:31:24 07:35:26 15° 321° (NW) 07:39:27 29.400- 29.500
STRAND 1 24 Jan 07:37:26 07:42:23 52° 260° (W) 07:47:23 437.568
HORYU 2 24 Jan 07:37:50 07:41:05 20° 297° (WNW) 07:44:19 437.375
LilacSat-2 24 Jan 07:46:17 07:49:38 28° 291° (WNW) 07:52:58 437.200
O/OREOS (USA 219) 24 Jan 07:48:32 07:51:34 18° 309° (NW) 07:54:38 437.305
CINEMA 3 24 Jan 07:56:56 08:01:08 66° 101° (ESE) 08:05:28 145.822/145.860
CUTE 1.7 + AOD 2 24 Jan 08:04:34 08:08:44 45° 99° (E) 08:12:49 437.475
NOAA 18 24 Jan 08:07:45 08:13:10 65° 289° (WNW) 08:18:33 137.9125
CUBEBUG 2 24 Jan 08:23:14 08:27:11 31° 96° (E) 08:31:12 437.445
CUTE-I 24 Jan 08:25:15 08:29:37 26° 297° (WNW) 08:33:59 437.470
FUNcube-1 24 Jan 08:27:30 08:29:34 13° 89° (E) 08:31:39 145.935
HO-68 24 Jan 08:28:42 08:35:53 70° 104° (ESE) 08:43:01 435.675
COMPASS 1 24 Jan 08:33:57 08:37:58 41° 98° (E) 08:41:55 437.405
CANX-2 24 Jan 08:34:40 08:38:58 74° 286° (WNW) 08:43:15 2200.000
SEEDS 24 Jan 08:36:41 08:40:57 68° 102° (ESE) 08:45:09 437.485
DOVE 4 24 Jan 08:38:46 08:40:30 12° 300° (WNW) 08:42:12 437.250
AAUSAT CUBESAT 2 24 Jan 08:40:51 08:44:47 37° 97° (E) 08:48:39 437.432
UWE-3 24 Jan 08:42:36 08:46:35 32° 96° (E) 08:50:39 435.000/436.395/437.385
JAS-2 24 Jan 08:45:42 08:46:23 10° 47° (NE) 08:47:05 435.910
SO-50 24 Jan 08:48:39 08:52:56 33° 316° (NW) 08:57:09 436.795
ZACube-1 24 Jan 08:51:50 08:55:31 25° 94° (E) 08:59:15 437.345
PCSat 24 Jan 09:03:15 09:08:40 62° 55° (NE) 09:14:02 145.827
NOAA 15 24 Jan 09:04:59 09:07:20 13° 305° (NW) 09:09:40 137.62
PRISM 24 Jan 09:07:55 09:12:05 84° 75° (ENE) 09:16:16 437.425
Cubesat XI-IV 24 Jan 09:11:41 09:13:43 12° 306° (NW) 09:15:44 437.490
UNISAT 6 24 Jan 09:14:56 09:18:40 30° 68° (ENE) 09:22:26 437.425
Cosmos 2499 24 Jan 09:18:38 09:20:29 11° 286° (WNW) 09:22:20 435.465 / 435.565
Oscar 11 24 Jan 09:19:57 09:24:04 39° 98° (E) 09:28:10 145.826/435.025
DELFI C3 24 Jan 09:21:25 09:23:24 13° 90° (E) 09:25:22 145.870
TIGRISAT 24 Jan 09:26:42 09:30:36 37° 70° (ENE) 09:34:33 435.000
GONETS M04 24 Jan 09:27:30 09:32:53 18° 285° (WNW) 09:38:18
CINEMA 3 24 Jan 09:35:44 09:37:49 13° 298° (WNW) 09:39:54 145.822/145.860
RS-15 24 Jan 09:37:25 09:49:03 51° 249° (WSW) 10:00:15 29.354- 29.394
CUTE 1.7 + AOD 2 24 Jan 09:41:11 09:44:14 19° 296° (WNW) 09:47:17 437.475
ANTELSAT 24 Jan 09:42:45 09:46:55 58° 73° (ENE) 09:51:09 437.575/2403.000
NOAA 18 24 Jan 09:51:17 09:52:48 11° 308° (NW) 09:54:17 137.9125
QB50P2 24 Jan 09:59:16 10:00:10 11° 59° (ENE) 10:01:05 145.880/145.840
CUBEBUG 2 24 Jan 10:00:00 10:03:42 28° 292° (WNW) 10:07:30 437.445
HUMSAT D 24 Jan 10:00:36 10:03:57 22° 93° (E) 10:07:18 437.325/437.525
FUNcube-1 24 Jan 10:01:50 10:06:13 68° 286° (WNW) 10:10:42 145.935
COMPASS 1 24 Jan 10:10:10 10:13:13 20° 295° (WNW) 10:16:16 437.405
SEEDS 24 Jan 10:14:00 10:16:06 13° 299° (WNW) 10:18:09 437.485
AAUSAT CUBESAT 2 24 Jan 10:16:51 10:20:00 21° 295° (WNW) 10:23:09 437.432
HO-68 24 Jan 10:17:15 10:23:01 27° 304° (WNW) 10:28:47 435.675
POPSAT HIP 1 24 Jan 10:17:57 10:20:23 15° 62° (ENE) 10:22:48 437.405
UWE-3 24 Jan 10:19:13 10:22:56 27° 293° (WNW) 10:26:43 435.000/436.395/437.385
DUCHIFAT 1 24 Jan 10:23:16 10:25:37 15° 62° (ENE) 10:27:59 145.980
JAS-2 24 Jan 10:24:35 10:29:56 56° 69° (ENE) 10:35:56 435.910
ZACube-1 24 Jan 10:27:50 10:31:50 35° 291° (WNW) 10:35:54 437.345
NANOSAT C BR1 24 Jan 10:30:27 10:33:24 19° 64° (ENE) 10:36:22 145.865
PCSat 24 Jan 10:47:34 10:51:35 21° 253° (WSW) 10:55:36 145.827
UNISAT 6 24 Jan 10:51:50 10:55:24 26° 265° (W) 10:59:00 437.425
DELFI C3 24 Jan 10:54:38 10:58:32 53° 287° (WNW) 11:02:24 145.870
Oscar 11 24 Jan 10:56:37 10:59:58 22° 295° (WNW) 11:03:18 145.826/435.025
TIGRISAT 24 Jan 11:04:13 11:07:26 21° 267° (W) 11:10:41 435.000
ANTELSAT 24 Jan 11:21:54 11:24:03 14° 270° (W) 11:26:12 437.575/2403.000
QB50P1 24 Jan 11:24:06 11:28:16 74° 74° (ENE) 11:32:28 145.935-145.965
POLYITAN 1 24 Jan 11:29:41 11:33:52 85° 76° (ENE) 11:38:05 437.675
QB50P2 24 Jan 11:31:06 11:35:18 87° 263° (W) 11:39:31 145.880/145.840
HUMSAT D 24 Jan 11:35:42 11:39:40 37° 290° (WNW) 11:43:38 437.325/437.525
Cosmos 2491 24 Jan 11:45:04 11:51:55 24° 62° (ENE) 11:58:44 435.465 / 435.565
CUSAT 1 24 Jan 11:50:40 11:53:49 13° 49° (NE) 11:56:55 437.405
POPSAT HIP 1 24 Jan 11:51:35 11:55:42 57° 259° (W) 11:59:51 437.405
SPROUT 24 Jan 11:53:01 11:54:44 12° 89° (E) 11:56:27 437.525
VELOX 1 24 Jan 11:56:26 11:59:27 18° 92° (E) 12:02:26 145.980
DUCHIFAT 1 24 Jan 11:56:45 12:00:51 57° 260° (W) 12:04:58 145.980
ESTCUBE 1 24 Jan 12:03:22 12:07:52 58° 101° (E) 12:12:18 437.505/2401.250
NANOSAT C BR1 24 Jan 12:04:51 12:08:50 43° 261° (W) 12:12:50 145.865
JAS-2 24 Jan 12:11:20 12:15:34 22° 271° (W) 12:20:09 435.910
BY70-1 24 Jan 12:12:28 12:15:30 41° 288° (WNW) 12:18:19 436.1900
BUGSAT 1 24 Jan 12:13:12 12:17:13 78° 77° (ENE) 12:21:15 437.445
Oscar 19 24 Jan 12:14:22 12:18:42 27° 64° (ENE) 12:23:02 437.125/150
DX 1 24 Jan 12:14:34 12:16:37 13° 90° (E) 12:18:38 434.975-435.025
CUBEBUG 1 24 Jan 12:30:24 12:34:43 66° 101° (E) 12:39:00 437.445
AO-85 24 Jan 12:51:36 12:55:37 28° 116° (ESE) 12:59:24 145.980
AO-7 24 Jan 12:56:33 13:01:37 18° 43° (NE) 13:06:40 29.400- 29.500
50 SAT 24 Jan 12:58:03 13:01:35 62° 101° (E) 13:05:04 437.505
AISAT 24 Jan 12:58:38 13:03:04 83° 105° (ESE) 13:07:26 437.250
Gurwin Techsat 1B 24 Jan 13:03:28 13:08:24 40° 67° (ENE) 13:13:20 435.225
QB50P1 24 Jan 13:03:37 13:04:32 11° 272° (W) 13:05:27 145.935-145.965
TISAT 1 24 Jan 13:06:13 13:06:43 10° 88° (E) 13:07:12 437.305
ITAMSAT 1 24 Jan 13:10:34 13:11:54 11° 54° (NE) 13:13:14 435.822/435.867
DANDE 24 Jan 13:22:27 13:28:25 22° 61° (ENE) 13:34:35 436.750
SPROUT 24 Jan 13:26:52 13:31:06 66° 286° (WNW) 13:35:19 437.525
CUSAT 1 24 Jan 13:30:04 13:37:51 51° 72° (ENE) 13:44:50 437.405
VELOX 1 24 Jan 13:31:56 13:36:10 47° 289° (WNW) 13:40:21 145.980
UKube-1 24 Jan 13:38:55 13:43:15 74° 103° (ESE) 13:47:32 .
Cosmos 2491 24 Jan 13:41:03 13:49:52 83° 263° (W) 13:58:42 435.465 / 435.565
ESTCUBE 1 24 Jan 13:41:17 13:44:13 17° 298° (WNW) 13:47:08 437.505/2401.250
AIST 1 24 Jan 13:46:58 13:51:12 53° 94° (E) 13:55:26
YUBILEINY 24 Jan 13:47:40 13:55:56 47° 88° (E) 14:04:14 435.215
DX 1 24 Jan 13:48:56 13:53:14 64° 287° (WNW) 13:57:30 434.975-435.025
Oscar 19 24 Jan 13:52:52 13:57:48 43° 262° (W) 14:02:46 437.125/150
SO-50 24 Jan 13:58:05 14:00:19 13° 29° (NNE) 14:02:33 436.795
Cosmos 2504 24 Jan 14:08:05 14:15:31 35° 85° (E) 14:22:33 435.465 / 435.565
CUBEBUG 1 24 Jan 14:08:11 14:10:29 14° 299° (WNW) 14:12:46 437.445
BEESAT 24 Jan 14:17:18 14:19:45 14° 89° (E) 14:22:12 436.000
SWISSCUBE 24 Jan 14:18:59 14:21:59 16° 91° (E) 14:24:58 437.505
AO-85 24 Jan 14:31:37 14:35:56 38° 312° (NW) 14:39:58 145.980
50 SAT 24 Jan 14:33:38 14:34:16 10° 299° (WNW) 14:34:54 437.505
O/OREOS (USA 219) 24 Jan 14:36:38 14:40:05 21° 53° (NE) 14:43:31 437.305
AISAT 24 Jan 14:37:14 14:38:52 12° 301° (WNW) 14:40:29 437.250
TISAT 1 24 Jan 14:38:40 14:42:52 76° 285° (WNW) 14:47:02 437.305
BEESAT 3 24 Jan 14:42:16 14:43:38 12° 109° (ESE) 14:45:00 437.485
Gurwin Techsat 1B 24 Jan 14:43:51 14:48:26 29° 265° (W) 14:53:03 435.225
AO-7 24 Jan 14:44:36 14:52:49 65° 65° (ENE) 15:01:05 29.400- 29.500
ITAMSAT 1 24 Jan 14:45:17 14:50:25 69° 72° (ENE) 14:55:34 435.822/435.867
BRITE-PL 24 Jan 14:58:12 15:00:00 12° 56° (NE) 15:01:46 437.365/2234.400
DANDE 24 Jan 15:04:06 15:12:10 85° 80° (E) 15:20:31 436.750
MOZHAYETS 4 24 Jan 15:09:30 15:12:10 15° 90° (E) 15:14:49
CUSAT 1 24 Jan 15:12:23 15:19:32 38° 273° (W) 15:26:02 437.405
UKube-1 24 Jan 15:16:45 15:18:42 13° 301° (WNW) 15:20:38 .
ITUPSAT 1 24 Jan 15:21:43 15:26:28 56° 101° (E) 15:31:12 437.325
AIST 1 24 Jan 15:26:30 15:29:08 16° 292° (WNW) 15:31:46
BEESAT 2 24 Jan 15:35:29 15:38:18 19° 112° (ESE) 15:41:08 435.950
SO-50 24 Jan 15:37:17 15:41:46 58° 51° (NE) 15:46:11 436.795
Cosmos 2491 24 Jan 15:39:59 15:45:17 18° 285° (WNW) 15:50:36 435.465 / 435.565
YUBILEINY 24 Jan 15:44:32 15:52:48 43° 289° (WNW) 16:01:09 435.215
BEESAT 24 Jan 15:53:15 15:58:03 72° 286° (WNW) 16:02:49 436.000
SWISSCUBE 24 Jan 15:55:26 16:00:11 62° 288° (WNW) 16:04:54 437.505
Cosmos 2504 24 Jan 16:00:16 16:08:35 55° 284° (WNW) 16:16:24 435.465 / 435.565
GOMX 1 24 Jan 16:14:12 16:18:00 21° 64° (ENE) 16:21:40 467.674
O/OREOS (USA 219) 24 Jan 16:15:24 16:19:44 49° 252° (WSW) 16:24:07 437.305
BEESAT 3 24 Jan 16:16:47 16:20:40 72° 307° (NW) 16:24:37 437.485
ITAMSAT 1 24 Jan 16:27:15 16:30:23 16° 270° (W) 16:33:34 435.822/435.867
AUBIESAT-1 24 Jan 16:27:32 16:29:14 13° 98° (E) 16:30:55 437.475
CUTE-I 24 Jan 16:31:35 16:34:29 15° 57° (ENE) 16:37:24 437.470
BRITE-PL 24 Jan 16:31:53 16:37:31 66° 73° (ENE) 16:42:59 437.365/2234.400
DOVE 4 24 Jan 16:32:05 16:33:37 11° 60° (ENE) 16:35:07 437.250
AO-7 24 Jan 16:38:53 16:46:05 32° 265° (W) 16:53:21 29.400- 29.500
MOZHAYETS 4 24 Jan 16:45:08 16:49:44 63° 287° (WNW) 16:54:20
DANDE 24 Jan 16:48:03 16:54:07 24° 277° (W) 17:00:20 436.750
KKS-1 24 Jan 16:51:06 16:55:23 47° 100° (E) 16:59:39 437.445
LilacSat-2 24 Jan 16:56:45 16:59:09 16° 64° (ENE) 17:01:34 437.200
HORYU 2 24 Jan 17:00:10 17:04:28 55° 72° (ENE) 17:08:48 437.375
ITUPSAT 1 24 Jan 17:00:30 17:03:54 19° 298° (WNW) 17:07:16 437.325
NOAA 15 24 Jan 17:06:26 17:10:57 30° 64° (ENE) 17:15:31 137.62
BEESAT 2 24 Jan 17:11:57 17:15:45 46° 310° (NW) 17:19:39 435.950
Cubesat XI-IV 24 Jan 17:14:08 17:18:47 32° 65° (ENE) 17:23:28 437.490
HO-68 24 Jan 17:15:56 17:19:36 15° 47° (NE) 17:23:15 435.675
SO-50 24 Jan 17:18:44 17:21:48 18° 249° (WSW) 17:24:50 436.795
M-CUBED/EXP-1 PRIME 24 Jan 17:28:01 17:31:20 76° 290° (WNW) 17:34:35 437.505
STARS 24 Jan 17:31:09 17:35:29 58° 101° (ESE) 17:39:47 437.465
BEESAT 24 Jan 17:34:25 17:34:56 10° 305° (NW) 17:35:27 436.000
CUBESAT XI-V 24 Jan 17:43:20 17:48:04 84° 101° (E) 17:52:43 437.345
GOMX 1 24 Jan 17:50:29 17:55:43 58° 260° (W) 18:00:41 467.674
NOAA 18 24 Jan 17:55:59 18:01:09 43° 67° (ENE) 18:06:19 137.9125
CANX-2 24 Jan 17:56:31 17:57:54 11° 59° (ENE) 17:59:17 2200.000
BEESAT 3 24 Jan 17:57:14 17:59:01 13° 327° (NNW) 18:00:48 437.485
AUBIESAT-1 24 Jan 18:00:47 18:03:52 35° 295° (WNW) 18:06:55 437.475
Cosmos 2504 24 Jan 18:01:31 18:03:57 11° 307° (NW) 18:06:21 435.465 / 435.565
DOVE 4 24 Jan 18:05:48 18:10:41 87° 76° (ENE) 18:15:18 437.250
CUTE-I 24 Jan 18:08:29 18:13:48 88° 257° (WSW) 18:19:09 437.470
Cosmos 2499 24 Jan 18:10:26 18:15:27 18° 79° (ENE) 18:20:16 435.465 / 435.565
BRITE-PL 24 Jan 18:12:19 18:16:21 20° 270° (W) 18:20:20 437.365/2234.400
AIST 2 24 Jan 18:14:51 18:17:48 19° 112° (ESE) 18:20:47 435.215
KKS-1 24 Jan 18:28:28 18:31:37 19° 297° (WNW) 18:34:47 437.445
LilacSat-2 24 Jan 18:29:31 18:33:07 41° 262° (W) 18:36:45 437.200
GONETS M04 24 Jan 18:37:57 18:44:27 24° 79° (ENE) 18:50:58
HORYU 2 24 Jan 18:38:43 18:41:22 16° 269° (W) 18:44:02 437.375
NOAA 15 24 Jan 18:45:34 18:50:33 41° 262° (W) 18:55:36 137.62
Cubesat XI-IV 24 Jan 18:53:53 18:58:46 37° 263° (W) 19:03:42 437.490
CUTE 1.7 + AOD 2 24 Jan 18:58:52 19:02:51 40° 70° (ENE) 19:06:53 437.475
HO-68 24 Jan 18:58:54 19:05:58 63° 68° (ENE) 19:13:04 435.675
CINEMA 3 24 Jan 19:00:22 19:04:41 75° 74° (ENE) 19:08:53 145.822/145.860
STARS 24 Jan 19:08:41 19:11:23 16° 299° (WNW) 19:14:05 437.465
CUBESAT XI-V 24 Jan 19:22:40 19:24:45 13° 301° (WNW) 19:26:50 437.345
CUBEBUG 2 24 Jan 19:23:30 19:27:09 31° 69° (ENE) 19:30:50 437.445
FUNcube-1 24 Jan 19:25:40 19:27:30 13° 61° (ENE) 19:29:22 145.935
COMPASS 1 24 Jan 19:26:17 19:30:08 36° 70° (ENE) 19:34:00 437.405
CANX-2 24 Jan 19:28:49 19:33:05 83° 258° (WSW) 19:37:25 2200.000
SEEDS 24 Jan 19:29:49 19:33:58 59° 73° (ENE) 19:38:10 437.485
AAUSAT CUBESAT 2 24 Jan 19:32:43 19:36:27 32° 69° (ENE) 19:40:12 437.432
